Regional Weather Roundup
Issued by NWS

Home | Current Version | Previous Version | Graphics & Text | Print | Product List | Glossary Off
Versions: 1 2 3 4 5 6 7 8 9 10 11 12 13 14 15 16 17 18 19 20 21 22 23 24 25 26 27 28 29 30 31 32 33 34 35 36 37 38 39 40 41 42 43 44 45 46 47 48 49 50

000
ASUS43 KDTX 240601
RWRMI
MICHIGAN HOURLY REGIONAL WEATHER ROUNDUP
NATIONAL WEATHER SERVICE DETROIT/PONTIAC MI
200 AM EDT SUN SEP 24 2017

NOTE: "FAIR" INDICATES FEW OR NO CLOUDS BELOW 12,000 FEET WITH NO
SIGNIFICANT WEATHER AND/OR OBSTRUCTION TO VISIBILITY.

MIZ047>049-052>055-059>063-066>070-074>076-081>083-240700-
SOUTHEAST LOWER MICHIGAN

CITY           SKY/WX    TMP DP  RH WIND       PRES   REMARKS
ADRIAN           N/A     62  59  90 N3        30.14S
6HR MIN TEMP:  62; 6HR MAX TEMP:  78;

ALMA           CLEAR     67  58  73 CALM      30.14R
6HR MIN TEMP:  66; 6HR MAX TEMP:  84;

ANN ARBOR      CLEAR     60  60 100 CALM      30.13S FOG
BAD AXE        CLEAR     66  62  88 CALM      30.14R
6HR MIN TEMP:  66; 6HR MAX TEMP:  80;

CARO           CLEAR     64  63  95 CALM      30.13R
DETROIT CITY   CLEAR     70  63  78 N6        30.13S
6HR MIN TEMP:  69; 6HR MAX TEMP:  81;

DETROIT        CLEAR     69  64  84 N3        30.13S
6HR MIN TEMP:  69; 6HR MAX TEMP:  80;

FLINT          CLEAR     65  60  84 CALM      30.14S
6HR MIN TEMP:  63; 6HR MAX TEMP:  83;

GROSSE ILE     CLEAR     68  66  94 CALM      30.11S
6HR MIN TEMP:  67; 6HR MAX TEMP:  73;

HILLSDALE      CLEAR     70  54  56 E5        30.15R
HOWELL         CLEAR     67  62  84 CALM      30.15S
6HR MIN TEMP:  66; 6HR MAX TEMP:  81;


CITY           SKY/WX    TMP DP  RH WIND       PRES   REMARKS
JACKSON        CLEAR     66  60  81 SE3       30.14S
6HR MIN TEMP:  65; 6HR MAX TEMP:  84;

LAMBERTVILLE   CLEAR     66  64  91 CALM      30.12F FOG
6HR MIN TEMP:  64; 6HR MAX TEMP:  72;

LANSING        CLEAR     69  59  70 CALM      30.14S
6HR MIN TEMP:  68; 6HR MAX TEMP:  84;

LAPEER         FAIR      63  62  96 CALM      30.15S FOG
6HR MIN TEMP:  63; 6HR MAX TEMP:  77;

MASON          CLEAR     65  61  86 CALM      30.14S
MONROE         CLEAR     64  62  93 CALM      30.12S
6HR MIN TEMP:  64; 6HR MAX TEMP:  72;

PONTIAC        CLEAR     67  63  87 CALM      30.13F
6HR MIN TEMP:  67; 6HR MAX TEMP:  82;

PORT HOPE        N/A     72  64  76 SW6       30.11R
6HR MIN TEMP:  72; 6HR MAX TEMP:  80;

PORT HURON     CLEAR     64  63  94 CALM      30.14S
TRI CITIES     CLEAR     72  64  76 SW8       30.13S
6HR MIN TEMP:  72; 6HR MAX TEMP:  83;

MIDLAND        FAIR      69  62  77 CALM      30.12R
6HR MIN TEMP:  67; 6HR MAX TEMP:  80;

TROY           CLEAR     70  60  68 CALM      30.15S
SAGINAW HB     CLEAR     68  61  77 S3        30.12R
$$
MIZ043>046-050>051-056>058-064>065-071>073-077>080-240700-
SOUTHWEST LOWER MICHIGAN

CITY           SKY/WX    TMP DP  RH WIND       PRES   REMARKS
BATTLE CREEK   CLEAR     69  63  81 CALM      30.13F
6HR MIN TEMP:  67; 6HR MAX TEMP:  84;

BENTON HARBOR  CLEAR     68  63  84 CALM      30.09S
6HR MIN TEMP:  67; 6HR MAX TEMP:  76;

BIG RAPIDS     CLEAR     63  61  93 CALM      30.12S FOG
6HR MIN TEMP:  62; 6HR MAX TEMP:  77;

COLDWATER      CLEAR     64  63  97 E5        30.13S
6HR MIN TEMP:  64; 6HR MAX TEMP:  78;

FREMONT        FAIR      68  65  90 SE3       30.10S
HOLLAND        CLEAR     66  62  87 E3        30.11S
6HR MIN TEMP:  65; 6HR MAX TEMP:  79;

GRAND RAPIDS   CLEAR     68  62  81 E3        30.12S
6HR MIN TEMP:  67; 6HR MAX TEMP:  84;

IONIA          FAIR      66  58  75 S3        30.12S
6HR MIN TEMP:  65; 6HR MAX TEMP:  82;

KALAMAZOO      CLEAR     68  61  78 CALM      30.12S
6HR MIN TEMP:  68; 6HR MAX TEMP:  84;

LUDINGTON      CLEAR     64  63  97 CALM      30.08S FOG
6HR MIN TEMP:  63; 6HR MAX TEMP:  73;

MARSHALL       CLEAR     62  62  99 CALM      30.13S
6HR MIN TEMP:  62; 6HR MAX TEMP:  79;

MUSKEGON       CLEAR     67  64  90 SE6       30.10S
6HR MIN TEMP:  67; 6HR MAX TEMP:  79;

SOUTH HAVEN    CLEAR     67  65  93 CALM      30.10R
$$
MIZ016>042-240700-
NORTHERN LOWER MICHIGAN

CITY           SKY/WX    TMP DP  RH WIND       PRES   REMARKS
ALPENA         CLEAR     67  66  97 CALM      30.11R
6HR MIN TEMP:  67; 6HR MAX TEMP:  81;

BELLAIRE       FOG       64  62  95 CALM      30.09S VSB 1/4
6HR MIN TEMP:  63; 6HR MAX TEMP:  73;

CADILLAC       CLEAR     64  61  88 CALM      30.13R FOG
CHARLEVOIX     CLEAR     68  67  94 SE5       30.11S
FRANKFORT      PTCLDY    65  65 100 CALM      30.08S FOG
GAYLORD        CLEAR     67  62  84 CALM      30.13S
6HR MIN TEMP:  65; 6HR MAX TEMP:  80;

GRAYLING       CLEAR     60  58  92 CALM      30.14R
6HR MIN TEMP:  60; 6HR MAX TEMP:  76;

HARBOR SPRINGS CLEAR     66  64  95 NE3       30.09R
HOUGHTON LAKE  CLEAR     63  61  93 CALM      30.14R FOG
6HR MIN TEMP:  62; 6HR MAX TEMP:  79;

MANISTEE       CLEAR     63  62  97 E3        30.09R FOG
OSCODA         CLEAR     69  66  90 SW6       30.10S
6HR MIN TEMP:  69; 6HR MAX TEMP:  78;

PELLSTON       CLEAR     62  61  96 N3        30.09R
6HR MIN TEMP:  61; 6HR MAX TEMP:  76;

ROGERS CITY    CLEAR     71  67  85 SW5       30.10S
TRAVERSE CITY  CLEAR     69  65  86 CALM      30.07S
6HR MIN TEMP:  69; 6HR MAX TEMP:  82;

$$
MIZ007>008-015-240700-
EASTERN UPPER MICHIGAN

CITY           SKY/WX    TMP DP  RH WIND       PRES   REMARKS
KINROSS        PTCLDY    68  65  90 SW3       30.08S
6HR MIN TEMP:  67; 6HR MAX TEMP:  76;

MACKINAC ISLAN PTCLDY    68  65  90 SW7       30.08S
6HR MIN TEMP:  68; 6HR MAX TEMP:  78;

NEWBERRY       CLEAR     69  68  97 SW8       30.07S
6HR MIN TEMP:  67; 6HR MAX TEMP:  72;

S. S. MARIE    PTCLDY    67  64  90 CALM      30.07R
6HR MIN TEMP:  67; 6HR MAX TEMP:  76;

MUNISING         N/A     73  68  84 S8        30.03R
6HR MIN TEMP:  72; 6HR MAX TEMP:  79;

$$
MIZ004>006-011>014-085-240700-
CENTRAL UPPER MICHIGAN

CITY           SKY/WX    TMP DP  RH WIND       PRES   REMARKS
MANISTIQUE     PTCLDY    65  59  81 S3        30.06R
6HR MIN TEMP:  64; 6HR MAX TEMP:  68;

ESCANABA       PTCLDY    67  66  97 CALM      30.04S
6HR MIN TEMP:  67; 6HR MAX TEMP:  76;

MENOMINEE      PTCLDY    73  66  78 SW6       30.05S
6HR MIN TEMP:  73; 6HR MAX TEMP:  78;

SAWYER-GWINN   CLOUDY    69  65  89 S6        30.06S
6HR MIN TEMP:  68; 6HR MAX TEMP:  78;

$$
MIZ001>003-009>011-084-240700-
WESTERN UPPER MICHIGAN

CITY           SKY/WX    TMP DP  RH WIND       PRES   REMARKS
IRON MOUNTAIN  PTCLDY    72  64  76 S6        30.04S
6HR MIN TEMP:  69; 6HR MAX TEMP:  77;

HOUGHTON       MOCLDY    68  65  90 E3        30.00S
6HR MIN TEMP:  68; 6HR MAX TEMP:  74;

COPPER HARBOR    N/A     70  67  90 SW6       29.99R
6HR MIN TEMP:  68; 6HR MAX TEMP:  71;

IRONWOOD       CLOUDY    74  66  76 S8        30.00S
6HR MIN TEMP:  71; 6HR MAX TEMP:  80;

$$

ABBREVIATIONS USED IN REMARKS
   TC - TEMPERATURE IN CELSIUS
  WCI - WIND CHILL INDEX
   HX - HEAT INDEX
  VSB - VISIBILITY





USA.gov is the U.S. government's official web portal to all federal, state and local government web resources and services.